Location: Oshawa
(43.9000°N, 78.8670°W)
Time: 19:42:17
(UTC-04:00)

Transit 2A Rocket - Visible Passes

Search period start: 02 September 2014 00:00
Search period end: 12 September 2014 00:00
Orbit: 594 x 915 km, 66.7° (Epoch: 02 September)

Date Brightness Start Highest point End Pass type
(mag) Time Alt. Az. Time Alt. Az. Time Alt. Az.
03 Sep 7.2 05:51:18 10° SSE 05:54:16 18° ESE 05:57:14 10° ENE visible
05 Sep 5.3 06:08:57 10° SSW 06:13:09 53° ESE 06:17:22 10° NE visible
06 Sep 6.3 05:27:55 10° S 05:31:37 29° ESE 05:35:21 10° NE visible
07 Sep 7.1 04:47:34 10° SE 04:50:12 16° ESE 04:52:50 10° ENE visible
08 Sep 4.5 05:46:19 10° SSW 05:50:37 86° ESE 05:54:59 10° NNE visible
09 Sep 5.4 05:06:04 18° S 05:09:01 46° ESE 05:13:11 10° NE visible
10 Sep 6.3 04:26:03 21° SE 04:27:31 25° ESE 04:31:05 10° NE visible
10 Sep 5.3 06:06:03 10° WSW 06:09:56 34° NW 06:13:58 10° NNE visible
11 Sep 7.0 03:45:58 14° ESE 03:46:07 14° ESE 03:48:19 10° ENE visible
11 Sep 4.6 05:25:57 27° SW 05:28:09 60° NW 05:32:29 10° NNE visible
